{"data":{"norad_id":67789,"epoch":"2026-09-20T21:39:08.254368Z","epoch_age_seconds":51890,"freshness":"FRESH","line1":"1 67789U 26030AB  26263.90217887  .00001960  00000+0  28600-3 0  9993","line2":"2 67789  51.8992  49.8933 0000826 121.8091 238.2952 14.79939985 34368","mean_motion":14.79939985,"eccentricity":8.26e-5,"inclination_deg":51.8992,"raan_deg":49.8933,"arg_perigee_deg":121.8091,"mean_anomaly_deg":238.2952,"bstar":0.000286,"rev_number":3436,"period_min":97.301242928442,"perigee_km":628.93474740975,"apogee_km":630.09241128546,"semimajor_km":7007.6505793476,"source":"CELESTRAK","updated_at":"2026-09-21T09:00:16.857630Z"}}